Home > Weather > Nizwa > Past weeks

Flag for Oman Past Weather in Nizwa, Oman — Yesterday and Last 2 Weeks

Now
99 °F

Extremely hot.


Feels Like: 103 °F
Forecast: 72 / 107 °F
Wind: 7 mph from Northeast

Location: International Airport

Current Time: May 25, 2016 at 5:15:13 PM

Latest Report: May 25, 2016 at 3:50 PM


Visibility: 4 mi

Pressure: 29.53 "Hg (27.88 "Hg at 522m altitude)

Humidity: 35%

Dew Point: 66 °F

Location of NizwaLocation

Past Weather in Nizwa — Graph

°F

Nizwa Temperature Yesterday

Maximum temperature yesterday: 95 °F (at 9:50 AM)
Minimum temperature yesterday: 86 °F (at 5:50 AM)
Average temperature yesterday: 91 °F

High & Low Weather Summary for the Past Weeks

 TemperatureHumidityPressure
High113 °F (May 21, 10:50 AM)79% (May 24, 7:50 AM)29.77 "Hg (May 24, 7:50 AM)
Low86 °F (May 16, 3:50 AM)12% (May 13, 10:50 AM)29.47 "Hg (May 20, 3:50 PM)
Average98 °F36%29.62 "Hg
* Reported May 10 3:50 PM — May 25 3:50 PM, Nizwa, Weather by CustomWeather, © 2016

Note: Actual official high and low records may vary slightly from our data, if they occured in-between our weather recording intervals... More about our weather records

Advertising

Nizwa Weather History for the Previous 24 Hours

Scroll right to see more
 ConditionsComfort  
Time TempWeatherWind HumidityBarometerVisibility
3:50 PM
Wed, May 25
99 °FExtremely hot.7 mph35%29.53 "Hg4 mi
2:50 PM97 °FClear.8 mph47%29.53 "Hg4 mi
1:50 PM95 °FClear.9 mph63%29.56 "Hg4 mi
12:50 PM95 °FClear.10 mph63%29.56 "Hg4 mi
11:50 AM93 °FClear.13 mph67%29.56 "Hg4 mi
10:50 AM93 °FClear.12 mph67%29.59 "Hg4 mi
9:50 AM91 °FClear.9 mph75%29.59 "Hg4 mi
8:50 AM91 °FClear.5 mph75%29.59 "Hg5 mi
7:50 AM91 °FClear.6 mph67%29.59 "Hg5 mi
6:50 AM90 °FClear.1 mph59%29.56 "Hg5 mi
5:50 AM88 °FClear.5 mph62%29.56 "Hg5 mi
4:50 AM86 °FHaze.No wind59%29.56 "Hg5 mi
2:50 AM88 °FClear.2 mph75%29.53 "Hg10 mi
1:50 AM90 °FClear.2 mph75%29.56 "Hg10 mi
12:50 AM90 °FClear.6 mph67%29.56 "Hg10 mi
11:50 PM
Tue, May 24
90 °FClear.5 mph67%29.56 "Hg10 mi
10:50 PM90 °FClear.3 mph71%29.56 "Hg10 mi
9:50 PM91 °FClear.5 mph71%29.56 "Hg10 mi
8:50 PM91 °FClear.5 mph71%29.56 "Hg10 mi
7:50 PM91 °FClear.6 mph67%29.56 "Hg10 mi
6:50 PM91 °FClear.8 mph67%29.53 "Hg6 mi
5:50 PM93 °FClear.10 mph56%29.53 "Hg6 mi
Weather by CustomWeather, © 2016

See weather overviewHow to use our weather pages